Platteville, WI

9:32 PM CDT on April 25, 2017 (GMT -0500)
Platteville Municipal

Weather History for KPVB - April, 2014

Change the Weather History Date:

Tuesday, April 1, 2014

  Actual Average (KDBQ) Record (KDBQ)
Temperature  
Mean Temperature 34 °F -  
Max Temperature 44 °F 48 °F 82 °F (1946)
Min Temperature 25 °F 31 °F 17 °F (1954)
Degree Days  
Heating Degree Days 31    
Moisture  
Dew Point 24 °F    
Average Humidity 69    
Maximum Humidity 85    
Minimum Humidity 54    
Precipitation  
Precipitation 0.02 in - - ()
Sea Level Pressure  
Sea Level Pressure 29.88 in    
Wind  
Wind Speed 20 mph (West)    
Max Wind Speed 29 mph    
Max Gust Speed 40 mph    
Visibility 10 miles    
Events      
Averages and records for this station are not official NWS values.
T = Trace of Precipitation, MM = Missing Value Source: NWS Daily Summary

Daily Weather History Graph

Daily Weather History Graph

Search for Another Location

Airport or City:

Trip Planner

Search our weather history database for the weather conditions in past years. The results will help you decide how hot, cold, wet, or windy it might be!

Date:

Astronomy

Apr. 01, 2014 Rise Set
Actual Time 6:43 AM CDT 7:27 PM CDT
Civil Twilight 6:15 AM CDT 7:56 PM CDT
Nautical Twilight 5:41 AM CDT 8:30 PM CDT
Astronomical Twilight 5:06 AM CDT 9:05 PM CDT
Moon 7:44 AM CDT (4/1) 9:54 PM CDT (4/1)
Length of Visible Light 13h 40m
Length of Day
12h 43m
Waxing Crescent, 5% of the Moon is Illuminated
Apr 1
Waxing Crescent
Apr 7
First Quarter
Apr 15
Full
Apr 22
Last Quarter
Apr 29
New

Hourly Weather History & Observations

Time (CDT) Temp. Windchill Dew Point Humidity Pressure Visibility Wind Dir Wind Speed Gust Speed Precip Events Conditions
12:15 AM 38.7 °F 28.0 °F 32.2 °F 78% 29.67 in 10.0 mi SW 23.0 mph 31.1 mph N/A   Clear
12:35 AM 36.7 °F 26.6 °F 31.1 °F 80% 29.67 in 10.0 mi SW 18.4 mph 23.0 mph N/A   Clear
12:55 AM 35.4 °F 24.9 °F 30.0 °F 81% 29.68 in 10.0 mi SW 18.4 mph 21.9 mph N/A   Clear
1:15 AM 34.7 °F 23.1 °F 27.3 °F 74% 29.68 in 10.0 mi SW 21.9 mph 31.1 mph N/A   Clear
1:35 AM 33.4 °F 21.7 °F 26.6 °F 76% 29.68 in 10.0 mi SW 20.7 mph 27.6 mph N/A   Clear
1:55 AM 32.5 °F 22.7 °F 26.2 °F 78% 29.69 in 10.0 mi WSW 13.8 mph 25.3 mph N/A   Mostly Cloudy
2:15 AM 32.2 °F 20.0 °F 26.6 °F 80% 29.68 in 10.0 mi WSW 20.7 mph 28.8 mph N/A   Overcast
2:35 AM 32.0 °F 19.2 °F 24.8 °F 75% 29.70 in 10.0 mi WSW 23.0 mph 35.7 mph N/A   Overcast
2:55 AM 30.9 °F 17.5 °F 22.3 °F 70% 29.70 in 10.0 mi WSW 24.2 mph 35.7 mph N/A   Overcast
3:15 AM 30.7 °F 16.4 °F 21.7 °F 69% 29.69 in 10.0 mi WSW 27.6 mph 38.0 mph N/A   Overcast
3:35 AM 30.0 °F 16.6 °F 21.7 °F 71% 29.69 in 10.0 mi WSW 23.0 mph 31.1 mph N/A   Overcast
3:55 AM 29.3 °F 16.2 °F 21.6 °F 73% 29.68 in 10.0 mi WSW 20.7 mph 31.1 mph N/A   Overcast
4:15 AM 28.9 °F 14.0 °F 22.1 °F 76% 29.69 in 10.0 mi SW 27.6 mph 35.7 mph N/A   Overcast
4:35 AM 27.9 °F 12.8 °F 19.8 °F 72% 29.70 in 10.0 mi WSW 26.5 mph 39.1 mph N/A   Overcast
4:55 AM 27.1 °F 12.1 °F 19.4 °F 73% 29.71 in 10.0 mi WSW 25.3 mph 33.4 mph N/A   Overcast
5:15 AM 26.4 °F 10.9 °F 18.7 °F 73% 29.72 in 10.0 mi WSW 26.5 mph 36.8 mph N/A   Overcast
5:35 AM 25.7 °F 9.3 °F 18.3 °F 74% 29.74 in 10.0 mi WSW 28.8 mph 36.8 mph N/A   Overcast
5:55 AM 25.5 °F 11.3 °F 19.0 °F 76% 29.74 in 10.0 mi WSW 20.7 mph 35.7 mph N/A   Overcast
6:15 AM 25.5 °F 10.0 °F 18.9 °F 76% 29.75 in 10.0 mi WSW 25.3 mph 32.2 mph N/A   Overcast
6:35 AM 25.5 °F 10.3 °F 18.9 °F 76% 29.77 in 10.0 mi WSW 24.2 mph 35.7 mph N/A   Overcast
6:55 AM 25.3 °F 9.1 °F 18.9 °F 76% 29.78 in 10.0 mi WSW 27.6 mph 34.5 mph N/A   Overcast
7:15 AM 25.5 °F 9.7 °F 19.2 °F 77% 29.79 in 10.0 mi WSW 26.5 mph 31.1 mph N/A   Overcast
7:35 AM 25.7 °F 11.2 °F 18.5 °F 74% 29.79 in 10.0 mi WSW 21.9 mph 29.9 mph N/A   Overcast
7:55 AM 25.7 °F 12.3 °F 18.3 °F 74% 29.79 in 10.0 mi WSW 18.4 mph 31.1 mph N/A   Overcast
8:15 AM 26.2 °F 12.2 °F 18.5 °F 73% 29.79 in 10.0 mi WSW 20.7 mph 27.6 mph N/A   Overcast
8:35 AM 26.8 °F 14.1 °F 19.0 °F 73% 29.79 in 10.0 mi WSW 17.3 mph 29.9 mph N/A   Overcast
8:55 AM 27.0 °F 12.5 °F 18.9 °F 72% 29.81 in 10.0 mi WSW 23.0 mph 31.1 mph N/A   Overcast
9:15 AM 27.0 °F 11.9 °F 18.3 °F 70% 29.81 in 10.0 mi West 25.3 mph 40.3 mph N/A   Overcast
9:35 AM 27.3 °F 12.7 °F 18.5 °F 69% 29.82 in 10.0 mi West 24.2 mph 35.7 mph N/A   Overcast
9:55 AM 27.7 °F 12.6 °F 18.9 °F 69% 29.83 in 10.0 mi WSW 26.5 mph 33.4 mph N/A   Overcast
10:15 AM 28.0 °F 13.9 °F 18.9 °F 68% 29.84 in 10.0 mi West 23.0 mph 32.2 mph N/A   Overcast
10:35 AM 28.2 °F 13.3 °F 18.9 °F 68% 29.85 in 10.0 mi West 26.5 mph 36.8 mph N/A   Overcast
10:55 AM 28.0 °F 13.0 °F 18.3 °F 67% 29.87 in 10.0 mi WSW 26.5 mph 36.8 mph N/A   Overcast
11:15 AM 28.8 °F 14.6 °F 18.5 °F 66% 29.87 in 10.0 mi West 24.2 mph 34.5 mph N/A   Overcast
11:35 AM 30.0 °F 15.2 °F 19.6 °F 65% 29.88 in 10.0 mi WSW 28.8 mph 32.2 mph N/A   Overcast
11:55 AM 31.3 °F 17.4 °F 20.3 °F 64% 29.89 in 10.0 mi WSW 26.5 mph 32.2 mph N/A   Overcast
12:15 PM 31.8 °F 19.0 °F 20.5 °F 63% 29.90 in 10.0 mi West 23.0 mph 32.2 mph N/A   Overcast
12:35 PM 32.5 °F 21.2 °F 20.8 °F 62% 29.91 in 10.0 mi West 18.4 mph 28.8 mph N/A   Mostly Cloudy
12:55 PM 33.3 °F 22.1 °F 21.2 °F 61% 29.92 in 10.0 mi West 18.4 mph 27.6 mph N/A   Mostly Cloudy
1:15 PM 35.1 °F 25.5 °F 22.1 °F 59% 29.92 in 10.0 mi West 15.0 mph 32.2 mph N/A   Scattered Clouds
1:35 PM 36.5 °F 24.4 °F 23.0 °F 58% 29.92 in 10.0 mi West 26.5 mph 34.5 mph N/A   Clear
1:55 PM 37.9 °F 27.9 °F 24.1 °F 57% 29.92 in 10.0 mi West 19.6 mph 31.1 mph N/A   Clear
2:15 PM 38.8 °F 28.8 °F 24.4 °F 56% 29.94 in 10.0 mi West 20.7 mph 32.2 mph N/A   Clear
2:35 PM 39.9 °F 31.1 °F 25.2 °F 56% 29.94 in 10.0 mi West 17.3 mph 31.1 mph N/A   Clear
2:55 PM 40.8 °F 31.4 °F 25.7 °F 55% 29.93 in 10.0 mi West 20.7 mph 27.6 mph N/A   Clear
3:15 PM 41.2 °F 33.4 °F 26.1 °F 55% 29.93 in 10.0 mi West 15.0 mph 20.7 mph N/A   Clear
3:35 PM 41.4 °F 32.4 °F 26.2 °F 55% 29.94 in 10.0 mi West 19.6 mph 25.3 mph N/A   Clear
3:55 PM 42.1 °F 35.2 °F 27.0 °F 55% 29.94 in 10.0 mi WNW 12.7 mph 24.2 mph N/A   Clear
4:15 PM 41.7 °F 34.1 °F 26.6 °F 55% 29.95 in 10.0 mi West 15.0 mph 19.6 mph N/A   Clear
4:35 PM 43.0 °F 34.5 °F 27.3 °F 54% 29.96 in 10.0 mi West 19.6 mph 27.6 mph N/A   Clear
4:55 PM 42.4 °F 34.7 °F 27.0 °F 54% 29.97 in 10.0 mi West 16.1 mph 26.5 mph N/A   Clear
5:15 PM 42.4 °F 36.5 °F 27.7 °F 56% 29.98 in 10.0 mi West 10.4 mph 18.4 mph N/A   Clear
5:35 PM 42.3 °F 34.8 °F 27.3 °F 56% 29.99 in 10.0 mi West 15.0 mph 18.4 mph N/A   Clear
5:55 PM 42.3 °F 34.8 °F 27.1 °F 55% 29.99 in 10.0 mi West 15.0 mph 18.4 mph N/A   Clear
6:15 PM 41.2 °F 34.1 °F 27.5 °F 58% 30.01 in 10.0 mi West 12.7 mph 24.2 mph N/A   Clear
6:35 PM 40.6 °F 34.8 °F 28.2 °F 61% 30.01 in 10.0 mi West 9.2 mph - N/A   Clear
6:55 PM 40.1 °F 34.7 °F 28.0 °F 62% 30.01 in 10.0 mi WNW 8.1 mph - N/A   Clear
7:15 PM 39.2 °F 33.0 °F 28.4 °F 65% 30.02 in 10.0 mi West 9.2 mph - N/A   Clear
7:35 PM 38.3 °F 33.2 °F 28.4 °F 68% 30.03 in 10.0 mi WNW 6.9 mph - N/A   Clear
7:55 PM 36.9 °F 31.4 °F 28.8 °F 72% 30.03 in 10.0 mi WNW 6.9 mph - N/A   Clear
8:15 PM 37.2 °F 31.9 °F 28.8 °F 71% 30.04 in 10.0 mi WNW 6.9 mph - N/A   Clear
8:35 PM 37.0 °F 32.4 °F 28.9 °F 73% 30.04 in 10.0 mi WNW 5.8 mph - N/A   Clear
8:55 PM 36.7 °F 30.5 °F 28.9 °F 74% 30.04 in 10.0 mi WNW 8.1 mph - N/A   Clear
9:15 PM 36.5 °F 31.8 °F 29.1 °F 75% 30.05 in 10.0 mi WNW 5.8 mph - N/A   Scattered Clouds
9:35 PM 35.6 °F 28.6 °F 29.3 °F 78% 30.07 in 10.0 mi West 9.2 mph - N/A   Clear
9:55 PM 35.2 °F 31.2 °F 29.3 °F 79% 30.07 in 10.0 mi WNW 4.6 mph - N/A   Clear
10:15 PM 35.2 °F 29.5 °F 29.3 °F 79% 30.07 in 10.0 mi WNW 6.9 mph - N/A   Clear
10:35 PM 35.2 °F 28.8 °F 29.3 °F 79% 30.08 in 10.0 mi WNW 8.1 mph - N/A   Clear
10:55 PM 34.2 °F 31.2 °F 29.1 °F 82% 30.08 in 10.0 mi WNW 3.5 mph - N/A   Clear
11:15 PM 33.6 °F 27.5 °F 28.8 °F 82% 30.09 in 10.0 mi West 6.9 mph - N/A   Clear
11:35 PM 32.9 °F 28.5 °F 28.6 °F 84% 30.09 in 10.0 mi WNW 4.6 mph - N/A   Clear
11:55 PM 32.5 °F 26.2 °F 28.4 °F 85% 30.09 in 10.0 mi WNW 6.9 mph - N/A   Clear